Simultaneous Nadir Overpasses (SNOs) Predictions

Prediction of SNOs between LANDSAT-8 and METOP-B Satellite Orbit:

Table of predicted SNOs for the next 14.0 days since TLE Epoch: 1/8/2018
Index Date (LANDSAT-8) Time (LANDSAT-8) Lat,Lon (LANDSAT-8) SZA (LANDSAT-8 ) Date (METOP-B) Time (METOP-B) Lat,Lon (METOP-B) SZA (METOP-B ) Distance(km) Time Diff (sec)
1 01/10/2018 11:44:54 81.13, 43.67 104.80 01/10/2018 11:44:45 81.13, 43.48 104.78 3.31 9
2 01/10/2018 12:34:20 -81.15,-148.41 75.17 01/10/2018 12:35:24 -81.16,-148.31 75.13 1.88 64
3 01/13/2018 06:29:50 -80.90, -60.83 76.15 01/13/2018 06:28:36 -80.99, -61.07 76.13 10.23 74
4 01/13/2018 07:19:07 81.13, 110.08 104.32 01/13/2018 07:19:06 81.13, 110.02 104.32 0.95 1
5 01/13/2018 08:08:33 -81.15, -81.98 75.64 01/13/2018 08:09:46 -81.15, -82.12 75.63 2.36 73
6 01/16/2018 02:03:55 -81.13, 8.77 76.22 01/16/2018 02:02:49 -81.12, 8.81 76.24 0.72 66
7 01/16/2018 02:53:20 81.15, 176.82 103.84 01/16/2018 02:53:27 81.15, 176.94 103.85 1.94 7
8 01/18/2018 21:38:09 -81.12, 75.14 76.81 01/18/2018 21:37:12 -81.12, 74.98 76.85 2.90 57
9 01/18/2018 22:27:34 81.15,-116.83 103.25 01/18/2018 22:27:50 81.14,-116.92 103.24 1.61 16
10 01/21/2018 17:12:22 -81.11, 141.49 77.45 01/21/2018 17:11:33 -81.12, 141.50 77.46 0.69 49




NCC Satellite Simultaneous Nadir Overpasses (SNOs) Prediction Service
